Satellite: NOAA-17
Catalog number: 27453
Epoch time:      11306.84924629
Element set:    0472
Inclination:      098.3645 deg
RA of node:       340.0895 deg
Eccentricity:    0.0012704
Arg of perigee:   102.2938 deg
Mean anomaly:     257.9655 deg
Mean motion:   14.24337846 rev/day
Decay rate:       3.10e-06 rev/day^2
Epoch rev:           48639
Checksum:              325

Satellite: NOAA-18
Catalog number: 28654
Epoch time:      11306.82302379
Element set:    0949
Inclination:      099.0155 deg
RA of node:       258.4243 deg
Eccentricity:    0.0015213
Arg of perigee:   074.8061 deg
Mean anomaly:     285.4796 deg
Mean motion:   14.11539543 rev/day
Decay rate:        8.5e-07 rev/day^2
Epoch rev:           33248
Checksum:              317

Satellite: NOAA-19
Catalog number: 33591
Epoch time:      11306.85093271
Element set:    0141
Inclination:      098.8406 deg
RA of node:       244.7490 deg
Eccentricity:    0.0013563
Arg of perigee:   306.9239 deg
Mean anomaly:     053.0697 deg
Mean motion:   14.11229789 rev/day
Decay rate:        2.6e-07 rev/day^2
Epoch rev:           14094
Checksum:              309

/EX
SB KEPS @ AMSAT  $ORB11307.M
Orbital Elements  11307.MISC

HR AMSAT ORBITAL ELEMENTS FOR MANNED AND MISCELLANEOUS SATELLITES
FROM WA5QGD FORT WORTH,TX November 3, 2011
Send Subscribe/unsubscribe to KEPS at http://www.amsat.org/mailman/listinfo/kep
BID: ORB11307.M
TO ALL RADIO AMATEURS BT

Satellite: HUBBLE
Catalog number: 20580
Epoch time:      11306.10856795
Element set:     877
Inclination:      028.4695 deg
RA of node:       195.3338 deg
Eccentricity:    0.0003420
Arg of perigee:   146.9247 deg
Mean anomaly:     213.1679 deg
Mean motion:   15.01722135 rev/day
Decay rate:      2.440e-05 rev/day^2
Epoch rev:           98040
Checksum:              292

Satellite: ISS
Catalog number: 25544
Epoch time:      11307.39278837
Element set:     367
Inclination:      051.6412 deg
RA of node:       180.0751 deg
Eccentricity:    0.0021741
Arg of perigee:   016.7654 deg
Mean anomaly:     139.2415 deg
Mean motion:   15.59531792 rev/day
Decay rate:     2.8613e-04 rev/day^2
Epoch rev:           74264
Checksum:              302

Satellite: CO-58
Catalog number: 28895
Epoch time:      11306.62554495
Element set:    0015
Inclination:      097.9423 deg
RA of node:       177.5039 deg
Eccentricity:    0.0018391
Arg of perigee:   143.5635 deg
Mean anomaly:     216.6842 deg
Mean motion:   14.60260018 rev/day
Decay rate:       8.88e-06 rev/day^2
Epoch rev:           32044
Checksum:              321

Satellite: FALCON
Catalog number: 30776
Epoch time:      11306.96415415
Element set:    0211
Inclination:      035.4323 deg
RA of node:       222.7922 deg
Eccentricity:    0.0002721
Arg of perigee:   242.8913 deg
Mean anomaly:     117.1525 deg
Mean motion:   15.05472957 rev/day
Decay rate:      5.767e-05 rev/day^2
Epoch rev:           25596
Checksum:              287

Satellite: MAST
Catalog number: 31126
Epoch time:      11306.58335949
Element set:    0302
Inclination:      097.8870 deg
RA of node:       325.9323 deg
Eccentricity:    0.0095356
Arg of perigee:   099.6716 deg
Mean anomaly:     261.5263 deg
Mean motion:   14.53863401 rev/day
Decay rate:       7.15e-06 rev/day^2
Epoch rev:           24119
Checksum:              306

Satellite: CAPE1
Catalog number: 31130
Epoch time:      11306.49066991
Element set:     310
Inclination:      097.8918 deg
RA of node:       322.4237 deg
Eccentricity:    0.0103134
Arg of perigee:   111.5257 deg
Mean anomaly:     249.6989 deg
Mean motion:   14.52541861 rev/day
Decay rate:       8.91e-06 rev/day^2
Epoch rev:           24071
Checksum:              292

Satellite: COMPASS
Catalog number: 32787
Epoch time:      11306.43184729
Element set:    0135
Inclination:      097.8335 deg
RA of node:       007.5804 deg
Eccentricity:    0.0016780
Arg of perigee:   085.6294 deg
Mean anomaly:     274.6859 deg
Mean motion:   14.82879499 rev/day
Decay rate:      3.121e-05 rev/day^2
Epoch rev:           19004
Checksum:              331

Satellite: AAUSAT2
Catalog number: 32788
Epoch time:      11306.84938129
Element set:    0127
Inclination:      097.8333 deg
RA of node:       008.2600 deg
Eccentricity:    0.0016551
Arg of perigee:   084.8089 deg
Mean anomaly:     275.5072 deg
Mean motion:   14.83103280 rev/day
Decay rate:      3.234e-05 rev/day^2
Epoch rev:           19012
Checksum:              290

Satellite: DO-64
Catalog number: 32789
Epoch time:      11306.73860289
Element set:    0141
Inclination:      097.8434 deg
RA of node:       009.4470 deg
Eccentricity:    0.0016181
Arg of perigee:   082.6999 deg
Mean anomaly:     277.6146 deg
Mean motion:   14.83852481 rev/day
Decay rate:      5.850e-05 rev/day^2
Epoch rev:           19012
Checksum:              335

Satellite: CO-66
Catalog number: 32791
Epoch time:      11306.68229045
Element set:    0130
Inclination:      097.8338 deg
RA of node:       007.7157 deg
Eccentricity:    0.0017206
Arg of perigee:   084.3623 deg
Mean anomaly:     275.9574 deg
Mean motion:   14.82496617 rev/day
Decay rate:      2.969e-05 rev/day^2
Epoch rev:           19002
Checksum:              326

